Regional Weather Roundup
Issued by NWS

Home | Current Version | Previous Version | Graphics & Text | Print | Product List | Glossary On
Versions: 1 2 3 4 5 6 7 8 9 10 11 12 13 14 15 16 17 18 19 20 21 22 23 24 25 26 27 28 29 30 31 32 33 34 35 36 37 38 39 40 41 42 43 44 45 46 47 48 49 50
164
ASUS44 KJAN 040810
RWRMS

MISSISSIPPI HOURLY WEATHER ROUNDUP
NATIONAL WEATHER SERVICE JACKSON MS
200 AM CST WED MAR 04 2015

NOTE: "FAIR: INDICATES FEW OR NO CLOUDS BELOW 12,000 FEET WITH NO
SIGNIFICANT WEATHER AND/OR OBSTRUCTIONS TO VISIBILITY.

MSZ001>002-007>008-010>013-018>021-025>028-034>036-040900-
NORTHWEST MISSISSIPPI

CITY           SKY/WX    TMP DP  RH WIND       PRES   REMARKS
CLARKSDALE     CLOUDY    63  63 100 S10G16    29.89S
CLEVELAND      PTSUNNY   60  60 100 S9        29.90S FOG
GREENWOOD      MOCLDY    68  64  87 S15       29.92S
GREENVILLE     PTCLDY    64  62  93 S12       29.90S
OLIVE BRANCH   CLOUDY    63 N/A N/A S8        29.87S
OXFORD         CLOUDY    64  63  94 SW12G20   29.91S
TUNICA         PTSUNNY   61  61 100 S13       29.87S
$$

MSZ003>006-009-014>017-022>024-029>033-037>039-040900-
NORTHEAST MISSISSIPPI

CITY           SKY/WX    TMP DP  RH WIND       PRES   REMARKS
COLUMBUS AFB   MOCLDY    65  65 100 S8        29.95F
CORINTH        CLOUDY    66  64  94 S8G15     29.88S
GOLDN TRIANGLE CLOUDY    64  63  94 S9        29.96F
STARKVILLE     CLOUDY    64  63  94 S8        29.96F
TUPELO         CLOUDY    65  63  93 SW10      29.91F
$$

MSZ040-058-040900-
CENTRAL MISSISSIPPI

CITY           SKY/WX    TMP DP  RH WIND       PRES   REMARKS
JACKSON INTL   CLOUDY    68  65  90 S12       29.96F
JACKSON HAWKNS CLOUDY    67  65  93 S9        29.96F
MERIDIAN KEY   CLOUDY    65  64  97 S7        29.99F
MERIDIAN NAS   CLOUDY    66  63  90 S3        30.00S
VICKSBURG      MOCLDY    67  65  93 SW3       29.95S
$$

MSZ059>079-040900-
SOUTH MISSISSIPPI

CITY           SKY/WX    TMP DP  RH WIND       PRES   REMARKS
BROOKHAVEN     CLOUDY    68  68 100 S6        29.99S
HATTIESBURG    CLOUDY    69  66  90 S7        30.00F
MCCOMB         CLOUDY    67  66  97 S8        29.98F FOG
NATCHEZ        CLOUDY    68  64  88 S10       29.96F
PINE BELT      CLOUDY    66  64  94 SE8       30.00F
$$

MSZ080>082-040900-
COASTAL MISSISSIPPI

CITY           SKY/WX    TMP DP  RH WIND       PRES   REMARKS
BILOXI         MOCLDY    66  66 100 S9        30.00F FOG
PASCAGOULA     CLOUDY    66  65  96 S8        30.01F FOG
GULFPORT       FOG       65  64  97 SE12      30.00F VSB 3/4
$$



USA.gov is the U.S. government's official web portal to all federal, state and local government web resources and services.